| time (UTC) | temp F | wind direction | speed MPH | gust MPH | rain 1hr in | rain 24hr in | rain mn in | humidity % | barometer mb |
| 20260506201529 | 41 | 286 | 2.0 | 5.0 | 0.01 | 1.00 | 0.71 | 95 | 1006.7 |
| 20260506201003 | 41 | 300 | 1.0 | 3.0 | 0.02 | 1.00 | 0.71 | 95 | 1006.6 |
| 20260506200504 | 41 | 314 | 2.0 | 3.0 | 0.02 | 1.00 | 0.71 | 95 | 1006.6 |
| 20260506200013 | 41 | 297 | 0.0 | 3.0 | 0.02 | 1.00 | 0.71 | 94 | 1006.5 |
| 20260506195504 | 42 | 278 | 1.0 | 2.0 | 0.03 | 1.00 | 0.71 | 95 | 1006.5 |
| 20260506195004 | 42 | 278 | 1.0 | 1.0 | 0.03 | 1.00 | 0.71 | 95 | 1006.5 |
| 20260506194518 | 42 | 82 | 0.0 | 1.0 | 0.04 | 1.01 | 0.71 | 95 | 1006.4 |
| 20260506194007 | 42 | 82 | 0.0 | 1.0 | 0.04 | 1.01 | 0.71 | 95 | 1006.4 |
| 20260506193503 | 42 | 82 | 0.0 | 1.0 | 0.04 | 1.01 | 0.71 | 96 | 1006.5 |
| 20260506193004 | 42 | 73 | 0.0 | 1.0 | 0.04 | 1.02 | 0.71 | 96 | 1006.5 |
| 20260506192503 | 42 | 73 | 0.0 | 1.0 | 0.04 | 1.05 | 0.71 | 96 | 1006.5 |
| 20260506192003 | 41 | 72 | 0.0 | 3.0 | 0.04 | 1.08 | 0.71 | 95 | 1006.6 |
| 20260506191506 | 41 | 93 | 1.0 | 3.0 | 0.04 | 1.07 | 0.70 | 95 | 1006.6 |
| 20260506191006 | 41 | 316 | 1.0 | 3.0 | 0.03 | 1.05 | 0.69 | 95 | 1006.6 |
| 20260506190504 | 41 | 281 | 0.0 | 3.0 | 0.03 | 1.05 | 0.69 | 95 | 1006.6 |
| 20260506190013 | 41 | 12 | 0.0 | 3.0 | 0.03 | 1.05 | 0.69 | 95 | 1006.7 |
| 20260506185504 | 41 | 303 | 1.0 | 3.0 | 0.02 | 1.04 | 0.68 | 95 | 1006.7 |
| 20260506185003 | 41 | 326 | 0.0 | 1.0 | 0.02 | 1.04 | 0.68 | 95 | 1006.7 |
| 20260506184536 | 41 | 309 | 0.0 | 2.0 | 0.02 | 1.04 | 0.67 | 95 | 1006.7 |
| 20260506184010 | 41 | 310 | 1.0 | 2.0 | 0.02 | 1.04 | 0.67 | 95 | 1006.7 |
| 20260506183506 | 41 | 287 | 1.0 | 2.0 | 0.03 | 1.04 | 0.67 | 95 | 1006.7 |
| 20260506183028 | 41 | 284 | 0.0 | 3.0 | 0.04 | 1.04 | 0.67 | 95 | 1006.7 |
| 20260506182505 | 40 | 318 | 1.0 | 3.0 | 0.04 | 1.04 | 0.67 | 95 | 1006.7 |
| 20260506182005 | 40 | 321 | 2.0 | 3.0 | 0.05 | 1.04 | 0.67 | 95 | 1006.7 |
| 20260506181508 | 41 | 300 | 1.0 | 3.0 | 0.05 | 1.03 | 0.66 | 95 | 1006.8 |
| 20260506181006 | 41 | 296 | 1.0 | 4.0 | 0.05 | 1.03 | 0.66 | 95 | 1006.8 |
| 20260506180504 | 41 | 283 | 0.0 | 4.0 | 0.06 | 1.03 | 0.66 | 95 | 1006.9 |
| 20260506180006 | 41 | 302 | 2.0 | 4.0 | 0.07 | 1.03 | 0.66 | 94 | 1007.0 |
| 20260506175504 | 41 | 293 | 1.0 | 2.0 | 0.07 | 1.03 | 0.66 | 95 | 1007.1 |
| 20260506175003 | 41 | 326 | 0.0 | 1.0 | 0.08 | 1.03 | 0.66 | 95 | 1007.1 |
| 20260506174511 | 41 | 325 | 0.0 | 1.0 | 0.07 | 1.02 | 0.65 | 95 | 1007.2 |
| 20260506174003 | 41 | 27 | 0.0 | 2.0 | 0.08 | 1.02 | 0.65 | 95 | 1007.3 |
| 20260506173505 | 41 | 27 | 1.0 | 2.0 | 0.07 | 1.01 | 0.64 | 95 | 1007.4 |
| 20260506173015 | 41 | 14 | 0.0 | 2.0 | 0.07 | 1.00 | 0.63 | 95 | 1007.6 |
| 20260506172506 | 41 | 14 | 1.0 | 2.0 | 0.08 | 1.00 | 0.63 | 95 | 1007.4 |
| 20260506172008 | 41 | 309 | 0.0 | 1.0 | 0.07 | 0.99 | 0.62 | 95 | 1007.5 |
| 20260506171518 | 41 | 284 | 0.0 | 3.0 | 0.07 | 0.98 | 0.61 | 95 | 1007.5 |
| 20260506171008 | 41 | 284 | 0.0 | 3.0 | 0.08 | 0.98 | 0.61 | 95 | 1007.5 |
| 20260506170507 | 41 | 20 | 1.0 | 5.0 | 0.08 | 0.97 | 0.60 | 95 | 1007.4 |
| 20260506170005 | 40 | 16 | 2.0 | 5.0 | 0.08 | 0.96 | 0.58 | 95 | 1007.3 |
| 20260506165503 | 41 | 317 | 0.0 | 6.0 | 0.09 | 0.96 | 0.58 | 95 | 1007.5 |
| 20260506165003 | 41 | 350 | 0.0 | 6.0 | 0.09 | 0.95 | 0.58 | 95 | 1007.4 |
| 20260506164508 | 41 | 340 | 2.0 | 4.0 | 0.10 | 0.95 | 0.58 | 95 | 1007.5 |
| 20260506164005 | 41 | 294 | 1.0 | 3.0 | 0.10 | 0.94 | 0.57 | 95 | 1007.6 |
| 20260506163504 | 41 | 221 | 0.0 | 3.0 | 0.11 | 0.94 | 0.57 | 95 | 1007.6 |
| 20260506163013 | 41 | 297 | 1.0 | 3.0 | 0.11 | 0.93 | 0.56 | 95 | 1007.7 |
| 20260506162507 | 41 | 35 | 1.0 | 3.0 | 0.11 | 0.92 | 0.55 | 95 | 1007.5 |
| 20260506162007 | 40 | 285 | 0.0 | 3.0 | 0.11 | 0.92 | 0.55 | 95 | 1007.8 |
| 20260506161518 | 40 | 281 | 1.0 | 3.0 | 0.11 | 0.91 | 0.54 | 95 | 1007.9 |
| 20260506161006 | 40 | 126 | 0.0 | 2.0 | 0.12 | 0.90 | 0.52 | 95 | 1008.0 |
| 20260506160507 | 40 | 86 | 0.0 | 2.0 | 0.11 | 0.89 | 0.52 | 95 | 1007.9 |
| 20260506160020 | 40 | 254 | 0.0 | 4.0 | 0.11 | 0.88 | 0.51 | 95 | 1008.1 |
| 20260506155508 | 40 | 298 | 1.0 | 4.0 | 0.11 | 0.87 | 0.50 | 95 | 1008.1 |
| 20260506155007 | 40 | 23 | 1.0 | 4.0 | 0.11 | 0.86 | 0.49 | 95 | 1008.2 |
| 20260506154526 | 40 | 271 | 2.0 | 4.0 | 0.10 | 0.85 | 0.48 | 95 | 1008.2 |
| 20260506154003 | 40 | 295 | 1.0 | 4.0 | 0.10 | 0.84 | 0.47 | 95 | 1008.2 |
| 20260506153505 | 40 | 285 | 1.0 | 4.0 | 0.09 | 0.83 | 0.46 | 95 | 1008.1 |
| 20260506153018 | 40 | 26 | 0.0 | 4.0 | 0.09 | 0.82 | 0.45 | 95 | 1008.0 |
| 20260506152503 | 40 | 32 | 2.0 | 3.0 | 0.08 | 0.81 | 0.44 | 95 | 1008.0 |
| 20260506152005 | 40 | 281 | 1.0 | 3.0 | 0.08 | 0.81 | 0.44 | 95 | 1008.0 |
| 20260506151515 | 41 | 28 | 1.0 | 3.0 | 0.08 | 0.80 | 0.43 | 95 | 1007.9 |
| 20260506151006 | 41 | 288 | 2.0 | 3.0 | 0.06 | 0.78 | 0.41 | 95 | 1007.9 |
| 20260506150507 | 41 | 291 | 2.0 | 3.0 | 0.06 | 0.78 | 0.41 | 94 | 1007.8 |
| 20260506150017 | 41 | 290 | 1.0 | 3.0 | 0.05 | 0.77 | 0.40 | 94 | 1007.9 |
| 20260506145506 | 41 | 308 | 1.0 | 3.0 | 0.05 | 0.76 | 0.39 | 94 | 1007.8 |
| 20260506145004 | 41 | 267 | 0.0 | 1.0 | 0.05 | 0.75 | 0.38 | 95 | 1007.7 |
| 20260506144522 | 41 | 273 | 0.0 | 1.0 | 0.05 | 0.75 | 0.38 | 95 | 1007.7 |
| 20260506144008 | 41 | 284 | 0.0 | 1.0 | 0.05 | 0.74 | 0.37 | 94 | 1007.7 |
| 20260506143508 | 42 | 296 | 0.0 | 1.0 | 0.06 | 0.74 | 0.37 | 95 | 1007.8 |
| 20260506143031 | 42 | 318 | 0.0 | 0.0 | 0.06 | 0.73 | 0.36 | 95 | 1007.8 |
| 20260506142505 | 42 | 319 | 0.0 | 1.0 | 0.06 | 0.73 | 0.36 | 95 | 1007.8 |
| 20260506142003 | 42 | 318 | 0.0 | 5.0 | 0.07 | 0.73 | 0.36 | 95 | 1007.9 |
| 20260506141507 | 42 | 338 | 1.0 | 5.0 | 0.07 | 0.72 | 0.35 | 95 | 1008.0 |
| 20260506141007 | 42 | 13 | 1.0 | 5.0 | 0.07 | 0.72 | 0.35 | 95 | 1007.9 |
| 20260506140504 | 42 | 80 | 1.0 | 4.0 | 0.08 | 0.72 | 0.35 | 95 | 1007.7 |
| 20260506140017 | 42 | 303 | 1.0 | 4.0 | 0.08 | 0.72 | 0.35 | 94 | 1007.8 |
| 20260506135503 | 42 | 291 | 2.0 | 3.0 | 0.08 | 0.71 | 0.34 | 94 | 1008.0 |
| 20260506135005 | 42 | 311 | 1.0 | 4.0 | 0.08 | 0.70 | 0.33 | 95 | 1007.9 |
| 20260506134518 | 42 | 7 | 1.0 | 4.0 | 0.09 | 0.70 | 0.33 | 95 | 1007.7 |
| 20260506134011 | 42 | 288 | 3.0 | 4.0 | 0.08 | 0.69 | 0.32 | 95 | 1008.0 |
| 20260506133508 | 43 | 278 | 0.0 | 2.0 | 0.08 | 0.68 | 0.31 | 95 | 1007.6 |
| 20260506133023 | 42 | 281 | 0.0 | 2.0 | 0.08 | 0.67 | 0.30 | 95 | 1007.4 |
| 20260506132511 | 42 | 71 | 0.0 | 2.0 | 0.09 | 0.67 | 0.30 | 95 | 1007.5 |
| 20260506132010 | 42 | 352 | 1.0 | 2.0 | 0.09 | 0.66 | 0.29 | 95 | 1008.0 |
| 20260506131533 | 42 | 102 | 1.0 | 2.0 | 0.08 | 0.65 | 0.28 | 94 | 1007.7 |
| 20260506131007 | 43 | 276 | 0.0 | 7.0 | 0.09 | 0.65 | 0.28 | 94 | 1007.7 |
| 20260506130507 | 43 | 112 | 1.0 | 8.0 | 0.09 | 0.64 | 0.27 | 94 | 1007.6 |
| 20260506130012 | 43 | 281 | 5.0 | 9.0 | 0.09 | 0.64 | 0.27 | 94 | 1008.4 |
| 20260506125504 | 43 | 96 | 6.0 | 9.0 | 0.09 | 0.63 | 0.26 | 94 | 1007.5 |
| 20260506125003 | 43 | 284 | 2.0 | 5.0 | 0.08 | 0.62 | 0.25 | 95 | 1008.5 |
| 20260506124513 | 43 | 71 | 2.0 | 11.0 | 0.07 | 0.61 | 0.24 | 94 | 1008.0 |
| 20260506124010 | 43 | 162 | 4.0 | 11.0 | 0.07 | 0.61 | 0.24 | 94 | 1007.5 |
| 20260506123506 | 43 | 321 | 6.0 | 10.0 | 0.06 | 0.60 | 0.23 | 93 | 1009.1 |
| 20260506123021 | 44 | 194 | 1.0 | 3.0 | 0.06 | 0.58 | 0.22 | 95 | 1008.1 |
| 20260506122506 | 44 | 278 | 0.0 | 4.0 | 0.05 | 0.58 | 0.21 | 94 | 1008.5 |
| 20260506122009 | 44 | 26 | 1.0 | 4.0 | 0.04 | 0.57 | 0.20 | 94 | 1008.5 |
| 20260506121524 | 44 | 14 | 1.0 | 3.0 | 0.04 | 0.57 | 0.20 | 94 | 1008.6 |
| 20260506121009 | 44 | 283 | 1.0 | 3.0 | 0.03 | 0.56 | 0.19 | 94 | 1008.7 |
| 20260506120509 | 44 | 347 | 1.0 | 5.0 | 0.02 | 0.55 | 0.18 | 94 | 1008.7 |
| 20260506120024 | 43 | 337 | 2.0 | 5.0 | 0.02 | 0.55 | 0.18 | 94 | 1008.6 |
| 20260506115506 | 44 | 309 | 1.0 | 4.0 | 0.02 | 0.54 | 0.17 | 94 | 1008.7 |
| 20260506115004 | 44 | 347 | 2.0 | 3.0 | 0.02 | 0.54 | 0.17 | 94 | 1008.7 |
| 20260506114520 | 44 | 286 | 1.0 | 2.0 | 0.02 | 0.54 | 0.17 | 94 | 1008.9 |
| 20260506114003 | 44 | 352 | 1.0 | 5.0 | 0.02 | 0.54 | 0.17 | 94 | 1008.7 |
| 20260506113503 | 44 | 286 | 1.0 | 5.0 | 0.02 | 0.54 | 0.17 | 94 | 1008.7 |
| 20260506113031 | 44 | 83 | 2.0 | 7.0 | 0.01 | 0.52 | 0.16 | 93 | 1008.6 |
| 20260506112508 | 44 | 291 | 3.0 | 7.0 | 0.01 | 0.52 | 0.16 | 94 | 1008.5 |
| 20260506112005 | 45 | 295 | 3.0 | 4.0 | 0.01 | 0.52 | 0.16 | 93 | 1009.0 |
| 20260506111527 | 45 | 300 | 1.0 | 3.0 | 0.01 | 0.52 | 0.16 | 94 | 1008.8 |
| 20260506111007 | 45 | 333 | 0.0 | 2.0 | 0.01 | 0.52 | 0.16 | 93 | 1008.6 |
| 20260506110507 | 45 | 302 | 1.0 | 3.0 | 0.01 | 0.52 | 0.16 | 93 | 1008.5 |
| 20260506110006 | 45 | 108 | 1.0 | 4.0 | 0.01 | 0.52 | 0.16 | 93 | 1008.2 |
| 20260506105503 | 46 | 342 | 1.0 | 4.0 | 0.01 | 0.52 | 0.15 | 94 | 1008.2 |
| 20260506105004 | 46 | 309 | 1.0 | 2.0 | 0.01 | 0.52 | 0.15 | 94 | 1008.2 |
| 20260506104506 | 46 | 283 | 0.0 | 2.0 | 0.01 | 0.52 | 0.15 | 94 | 1008.2 |
| 20260506104002 | 46 | 286 | 1.0 | 2.0 | 0.01 | 0.52 | 0.15 | 93 | 1008.3 |
| 20260506103506 | 46 | 283 | 1.0 | 2.0 | 0.01 | 0.52 | 0.15 | 94 | 1008.1 |
| 20260506103014 | 47 | 276 | 1.0 | 1.0 | 0.01 | 0.52 | 0.15 | 94 | 1008.1 |
| 20260506102506 | 46 | 257 | 0.0 | 1.0 | 0.01 | 0.52 | 0.15 | 94 | 1008.0 |
| 20260506102004 | 47 | 257 | 0.0 | 1.0 | 0.01 | 0.52 | 0.15 | 94 | 1007.9 |
| 20260506101516 | 47 | 68 | 0.0 | 2.0 | 0.01 | 0.52 | 0.15 | 94 | 1008.0 |
| 20260506101005 | 46 | 68 | 0.0 | 2.0 | 0.01 | 0.52 | 0.15 | 94 | 1007.9 |
| 20260506100508 | 46 | 150 | 0.0 | 5.0 | 0.01 | 0.52 | 0.15 | 94 | 1008.2 |
| 20260506100023 | 47 | 107 | 1.0 | 6.0 | 0.01 | 0.52 | 0.15 | 94 | 1008.4 |
| 20260506095507 | 47 | 101 | 2.0 | 6.0 | 0.00 | 0.51 | 0.14 | 94 | 1008.2 |
| 20260506095007 | 47 | 69 | 3.0 | 7.0 | 0.00 | 0.51 | 0.14 | 94 | 1008.4 |
| 20260506094508 | 47 | 84 | 2.0 | 7.0 | 0.00 | 0.51 | 0.14 | 94 | 1008.5 |
| 20260506094003 | 47 | 285 | 4.0 | 7.0 | 0.00 | 0.51 | 0.14 | 94 | 1009.6 |
| 20260506093505 | 47 | 77 | 2.0 | 3.0 | 0.00 | 0.51 | 0.14 | 94 | 1008.6 |
| 20260506093008 | 47 | 112 | 2.0 | 5.0 | 0.00 | 0.51 | 0.14 | 94 | 1008.5 |
| 20260506092504 | 47 | 98 | 2.0 | 7.0 | 0.00 | 0.51 | 0.14 | 93 | 1008.6 |
| 20260506092007 | 48 | 86 | 3.0 | 7.0 | 0.00 | 0.51 | 0.14 | 93 | 1008.3 |
| 20260506091516 | 48 | 271 | 1.0 | 3.0 | 0.00 | 0.51 | 0.14 | 95 | 1009.0 |
| 20260506091004 | 48 | 121 | 0.0 | 3.0 | 0.00 | 0.51 | 0.14 | 94 | 1008.8 |
| 20260506090504 | 48 | 121 | 0.0 | 4.0 | 0.00 | 0.51 | 0.14 | 93 | 1008.4 |
| 20260506090023 | 48 | 258 | 1.0 | 5.0 | 0.00 | 0.51 | 0.14 | 94 | 1008.4 |
| 20260506085506 | 49 | 134 | 3.0 | 5.0 | 0.00 | 0.51 | 0.14 | 94 | 1008.4 |
| 20260506085007 | 49 | 286 | 2.0 | 4.0 | 0.00 | 0.51 | 0.14 | 94 | 1009.2 |
| 20260506084523 | 49 | 146 | 2.0 | 4.0 | 0.02 | 0.51 | 0.14 | 94 | 1008.6 |
| 20260506084012 | 49 | 105 | 2.0 | 5.0 | 0.02 | 0.51 | 0.14 | 93 | 1008.6 |
| 20260506083508 | 49 | 96 | 3.0 | 5.0 | 0.02 | 0.51 | 0.14 | 93 | 1008.7 |
| 20260506083025 | 50 | 107 | 1.0 | 2.0 | 0.02 | 0.51 | 0.14 | 94 | 1008.7 |
| 20260506082503 | 50 | 148 | 0.0 | 5.0 | 0.02 | 0.51 | 0.14 | 94 | 1009.2 |
| 20260506082005 | 50 | 146 | 1.0 | 5.0 | 0.02 | 0.51 | 0.14 | 94 | 1009.4 |
| 20260506081512 | 50 | 115 | 0.0 | 4.0 | 0.02 | 0.51 | 0.14 | 94 | 1008.7 |
| 20260506081008 | 50 | 115 | 0.0 | 4.0 | 0.02 | 0.51 | 0.14 | 94 | 1008.6 |
| 20260506080504 | 50 | 261 | 1.0 | 3.0 | 0.02 | 0.51 | 0.14 | 94 | 1009.3 |
| 20260506073509 | 50 | 94 | 0.0 | 1.0 | 0.03 | 0.49 | 0.12 | 93 | 1008.2 |
| 20260506073026 | 50 | 94 | 1.0 | 1.0 | 0.04 | 0.49 | 0.12 | 93 | 1008.5 |
| 20260506072507 | 50 | 297 | 0.0 | 1.0 | 0.05 | 0.49 | 0.12 | 93 | 1008.9 |
| 20260506072010 | 50 | 92 | 0.0 | 2.0 | 0.05 | 0.49 | 0.12 | 92 | 1008.7 |
| 20260506071525 | 51 | 93 | 1.0 | 2.0 | 0.05 | 0.49 | 0.12 | 92 | 1008.5 |
| 20260506071003 | 51 | 93 | 1.0 | 2.0 | 0.05 | 0.49 | 0.12 | 92 | 1008.6 |
| 20260506070503 | 51 | 120 | 1.0 | 2.0 | 0.05 | 0.49 | 0.12 | 92 | 1008.9 |
| 20260506062508 | 52 | 251 | 1.0 | 1.0 | 0.01 | 0.44 | 0.07 | 87 | 1008.8 |
| 20260506062009 | 52 | 290 | 0.0 | 2.0 | 0.01 | 0.44 | 0.07 | 87 | 1008.6 |
| 20260506061528 | 52 | 358 | 1.0 | 2.0 | 0.01 | 0.44 | 0.07 | 88 | 1008.7 |
| 20260506061012 | 51 | 82 | 0.0 | 2.0 | 0.01 | 0.44 | 0.07 | 89 | 1008.9 |
| 20260506060506 | 51 | 281 | 0.0 | 3.0 | 0.01 | 0.44 | 0.07 | 90 | 1009.1 |
| 20260506051005 | 51 | 84 | 1.0 | 2.0 | 0.05 | 0.43 | 0.06 | 94 | 1009.3 |
| 20260506050507 | 51 | 14 | 0.0 | 1.0 | 0.05 | 0.43 | 0.06 | 94 | 1009.6 |
| 20260506045008 | 51 | 100 | 2.0 | 4.0 | 0.04 | 0.41 | 0.04 | 93 | 1009.3 |
| 20260506044528 | 51 | 87 | 2.0 | 5.0 | 0.04 | 0.41 | 0.04 | 93 | 1009.0 |
| 20260506044007 | 51 | 104 | 4.0 | 5.0 | 0.05 | 0.41 | 0.04 | 93 | 1008.7 |
| 20260506043505 | 51 | 109 | 3.0 | 3.0 | 0.07 | 0.41 | 0.04 | 93 | 1009.0 |
| 20260506043015 | 51 | 109 | 2.0 | 4.0 | 0.13 | 0.41 | 0.04 | 93 | 1008.9 |
| 20260506042505 | 51 | 103 | 3.0 | 4.0 | 0.16 | 0.41 | 0.04 | 93 | 1008.7 |
| 20260506042006 | 51 | 110 | 0.0 | 3.0 | 0.15 | 0.40 | 0.03 | 93 | 1009.4 |
| 20260506041520 | 51 | 105 | 1.0 | 3.0 | 0.14 | 0.38 | 0.01 | 93 | 1009.0 |
| 20260506041006 | 51 | 109 | 1.0 | 3.0 | 0.14 | 0.38 | 0.01 | 92 | 1008.7 |
| 20260506040506 | 51 | 117 | 2.0 | 3.0 | 0.18 | 0.38 | 0.01 | 92 | 1008.6 |
| 20260506040024 | 51 | 79 | 0.0 | 1.0 | 0.19 | 0.37 | 0.00 | 91 | 1009.4 |
| 20260506035510 | 52 | 79 | 0.0 | 1.0 | 0.20 | 0.37 | 0.37 | 91 | 1009.2 |
| 20260506035009 | 52 | 79 | 0.0 | 1.0 | 0.21 | 0.37 | 0.37 | 91 | 1009.1 |
| 20260506034530 | 52 | 272 | 0.0 | 4.0 | 0.22 | 0.37 | 0.37 | 90 | 1009.1 |
| 20260506034002 | 52 | 275 | 0.0 | 5.0 | 0.21 | 0.36 | 0.36 | 89 | 1009.3 |
| 20260506033502 | 52 | 305 | 2.0 | 6.0 | 0.19 | 0.34 | 0.34 | 89 | 1009.4 |
| 20260506033013 | 53 | 294 | 3.0 | 6.0 | 0.13 | 0.28 | 0.28 | 89 | 1009.1 |
| 20260506032505 | 53 | 296 | 2.0 | 8.0 | 0.10 | 0.25 | 0.25 | 89 | 1008.8 |
| 20260506032009 | 53 | 301 | 3.0 | 9.0 | 0.11 | 0.25 | 0.25 | 88 | 1008.7 |
| 20260506031519 | 54 | 314 | 4.0 | 9.0 | 0.12 | 0.24 | 0.24 | 88 | 1008.8 |
| 20260506031006 | 55 | 312 | 2.0 | 6.0 | 0.12 | 0.24 | 0.24 | 89 | 1008.3 |
| 20260506030507 | 55 | 306 | 3.0 | 5.0 | 0.08 | 0.20 | 0.20 | 89 | 1008.5 |
| 20260506030035 | 56 | 300 | 2.0 | 5.0 | 0.06 | 0.18 | 0.18 | 87 | 1008.2 |
| 20260506025506 | 56 | 279 | 3.0 | 5.0 | 0.05 | 0.17 | 0.17 | 85 | 1008.2 |
| 20260506025007 | 56 | 283 | 4.0 | 5.0 | 0.04 | 0.16 | 0.16 | 84 | 1008.1 |
| 20260506024546 | 57 | 288 | 1.0 | 4.0 | 0.03 | 0.15 | 0.15 | 84 | 1007.9 |
| 20260506024009 | 56 | 284 | 2.0 | 4.0 | 0.03 | 0.15 | 0.15 | 84 | 1007.8 |
| 20260506023508 | 57 | 279 | 1.0 | 4.0 | 0.03 | 0.15 | 0.15 | 84 | 1007.9 |
| 20260506023013 | 57 | 285 | 2.0 | 4.0 | 0.03 | 0.15 | 0.15 | 83 | 1008.1 |
| 20260506022509 | 58 | 281 | 2.0 | 4.0 | 0.03 | 0.15 | 0.15 | 81 | 1008.1 |
| 20260506022002 | 59 | 263 | 2.0 | 4.0 | 0.02 | 0.14 | 0.14 | 78 | 1008.0 |
| 20260506021514 | 59 | 275 | 2.0 | 8.0 | 0.00 | 0.12 | 0.12 | 76 | 1007.9 |
| 20260506021008 | 59 | 258 | 2.0 | 8.0 | 0.00 | 0.12 | 0.12 | 75 | 1007.8 |
| 20260506020508 | 59 | 253 | 2.0 | 6.0 | 0.00 | 0.12 | 0.12 | 75 | 1007.7 |
| 20260506020018 | 60 | 276 | 3.0 | 8.0 | 0.00 | 0.12 | 0.12 | 75 | 1007.7 |
| 20260506015506 | 60 | 293 | 4.0 | 8.0 | 0.00 | 0.12 | 0.12 | 74 | 1007.7 |
| 20260506015007 | 60 | 289 | 4.0 | 11.0 | 0.00 | 0.12 | 0.12 | 74 | 1007.9 |
| 20260506014524 | 60 | 245 | 4.0 | 11.0 | 0.00 | 0.12 | 0.12 | 73 | 1007.9 |
| 20260506014006 | 59 | 273 | 5.0 | 9.0 | 0.00 | 0.12 | 0.12 | 74 | 1007.9 |
| 20260506013511 | 59 | 292 | 4.0 | 7.0 | 0.00 | 0.12 | 0.12 | 75 | 1007.8 |
| 20260506013038 | 59 | 265 | 3.0 | 5.0 | 0.00 | 0.12 | 0.12 | 76 | 1007.7 |
| 20260506012508 | 59 | 283 | 3.0 | 5.0 | 0.00 | 0.12 | 0.12 | 75 | 1007.5 |
| 20260506012009 | 58 | 259 | 0.0 | 1.0 | 0.00 | 0.12 | 0.12 | 76 | 1007.3 |
| 20260506011513 | 58 | 124 | 0.0 | 3.0 | 0.00 | 0.12 | 0.12 | 77 | 1007.2 |
| 20260506011004 | 58 | 124 | 0.0 | 3.0 | 0.00 | 0.12 | 0.12 | 78 | 1007.1 |
| 20260506010505 | 58 | 129 | 0.0 | 1.0 | 0.00 | 0.12 | 0.12 | 78 | 1007.3 |
| 20260506010023 | 58 | 84 | 0.0 | 1.0 | 0.00 | 0.12 | 0.12 | 78 | 1007.3 |
| 20260506005506 | 58 | 100 | 0.0 | 1.0 | 0.00 | 0.12 | 0.12 | 78 | 1007.2 |
| 20260506005006 | 58 | 79 | 0.0 | 2.0 | 0.00 | 0.12 | 0.12 | 77 | 1007.2 |
| 20260506004520 | 58 | 79 | 0.0 | 2.0 | 0.00 | 0.12 | 0.12 | 77 | 1007.0 |
| 20260506004008 | 58 | 95 | 1.0 | 2.0 | 0.00 | 0.12 | 0.12 | 77 | 1006.8 |
| 20260506003506 | 58 | 96 | 1.0 | 2.0 | 0.00 | 0.12 | 0.12 | 77 | 1006.9 |
| 20260506003028 | 58 | 91 | 1.0 | 2.0 | 0.00 | 0.12 | 0.12 | 77 | 1006.8 |
| 20260506002508 | 58 | 74 | 1.0 | 2.0 | 0.00 | 0.12 | 0.12 | 78 | 1006.9 |
| 20260506002010 | 58 | 47 | 0.0 | 2.0 | 0.00 | 0.12 | 0.12 | 78 | 1006.9 |
| 20260506001526 | 59 | 96 | 0.0 | 2.0 | 0.00 | 0.12 | 0.12 | 77 | 1006.9 |
| 20260506001009 | 59 | 126 | 0.0 | 2.0 | 0.00 | 0.12 | 0.12 | 76 | 1006.9 |
| 20260506000511 | 60 | 251 | 0.0 | 1.0 | 0.00 | 0.12 | 0.12 | 74 | 1006.8 |
| 20260506000026 | 60 | 252 | 0.0 | 3.0 | 0.00 | 0.12 | 0.12 | 73 | 1006.7 |
| 20260505235506 | 61 | 252 | 0.0 | 5.0 | 0.00 | 0.12 | 0.12 | 72 | 1006.7 |
| 20260505235005 | 61 | 281 | 2.0 | 6.0 | 0.00 | 0.12 | 0.12 | 71 | 1006.7 |
| 20260505234516 | 60 | 279 | 2.0 | 6.0 | 0.00 | 0.12 | 0.12 | 73 | 1006.7 |
| 20260505234008 | 60 | 271 | 3.0 | 6.0 | 0.00 | 0.12 | 0.12 | 73 | 1006.7 |
| 20260505233505 | 60 | 281 | 3.0 | 7.0 | 0.00 | 0.12 | 0.12 | 73 | 1006.7 |
| 20260505233022 | 60 | 268 | 3.0 | 10.0 | 0.00 | 0.12 | 0.12 | 74 | 1006.7 |
| 20260505232508 | 60 | 264 | 4.0 | 10.0 | 0.00 | 0.12 | 0.12 | 73 | 1006.7 |
| 20260505232007 | 60 | 274 | 5.0 | 10.0 | 0.00 | 0.12 | 0.12 | 73 | 1006.4 |
| 20260505231523 | 60 | 274 | 5.0 | 8.0 | 0.00 | 0.12 | 0.12 | 74 | 1006.2 |
| 20260505231009 | 60 | 288 | 5.0 | 7.0 | 0.00 | 0.12 | 0.12 | 74 | 1006.1 |
| 20260505230508 | 60 | 281 | 5.0 | 8.0 | 0.00 | 0.12 | 0.12 | 75 | 1006.1 |
| 20260505230040 | 60 | 280 | 4.0 | 10.0 | 0.00 | 0.12 | 0.12 | 75 | 1006.1 |
| 20260505225511 | 60 | 278 | 5.0 | 10.0 | 0.00 | 0.12 | 0.12 | 77 | 1006.0 |
| 20260505225011 | 59 | 302 | 5.0 | 9.0 | 0.00 | 0.12 | 0.12 | 77 | 1006.1 |
| 20260505224528 | 59 | 285 | 5.0 | 9.0 | 0.00 | 0.12 | 0.12 | 77 | 1006.2 |
| 20260505224006 | 59 | 295 | 5.0 | 10.0 | 0.00 | 0.12 | 0.12 | 78 | 1006.1 |
| 20260505223505 | 59 | 293 | 5.0 | 11.0 | 0.00 | 0.12 | 0.12 | 78 | 1006.0 |
| 20260505223016 | 59 | 277 | 5.0 | 11.0 | 0.00 | 0.12 | 0.12 | 76 | 1006.1 |
| 20260505222506 | 58 | 274 | 6.0 | 11.0 | 0.00 | 0.12 | 0.12 | 81 | 1006.2 |
| 20260505222009 | 59 | 283 | 3.0 | 11.0 | 0.01 | 0.12 | 0.12 | 81 | 1006.4 |
| 20260505221520 | 59 | 263 | 6.0 | 13.0 | 0.01 | 0.12 | 0.12 | 79 | 1006.4 |
| 20260505221006 | 59 | 286 | 6.0 | 13.0 | 0.01 | 0.12 | 0.12 | 78 | 1006.2 |
| 20260505220506 | 60 | 280 | 7.0 | 14.0 | 0.02 | 0.12 | 0.12 | 77 | 1006.2 |
| 20260505220023 | 59 | 269 | 7.0 | 14.0 | 0.02 | 0.12 | 0.12 | 78 | 1006.2 |
| 20260505215509 | 59 | 283 | 6.0 | 12.0 | 0.02 | 0.12 | 0.12 | 80 | 1006.4 |
| 20260505215006 | 59 | 284 | 5.0 | 12.0 | 0.02 | 0.12 | 0.12 | 80 | 1006.1 |
| 20260505214526 | 58 | 260 | 7.0 | 11.0 | 0.03 | 0.12 | 0.12 | 82 | 1006.0 |
| 20260505214012 | 58 | 274 | 5.0 | 12.0 | 0.03 | 0.12 | 0.12 | 83 | 1006.2 |
| 20260505213510 | 58 | 302 | 7.0 | 12.0 | 0.03 | 0.12 | 0.12 | 82 | 1005.9 |
| 20260505213033 | 58 | 281 | 7.0 | 10.0 | 0.03 | 0.12 | 0.12 | 83 | 1005.9 |
| 20260505212507 | 58 | 294 | 5.0 | 8.0 | 0.03 | 0.12 | 0.12 | 83 | 1006.1 |
| 20260505212007 | 58 | 278 | 4.0 | 11.0 | 0.02 | 0.11 | 0.11 | 84 | 1006.1 |
| 20260505211518 | 58 | 292 | 5.0 | 16.0 | 0.03 | 0.11 | 0.11 | 85 | 1006.1 |
| 20260505211004 | 58 | 285 | 6.0 | 16.0 | 0.03 | 0.11 | 0.11 | 83 | 1005.8 |
| 20260505210506 | 58 | 260 | 6.0 | 13.0 | 0.02 | 0.10 | 0.10 | 82 | 1005.8 |
| 20260505210023 | 58 | 257 | 5.0 | 9.0 | 0.02 | 0.10 | 0.10 | 80 | 1005.5 |
| 20260505205507 | 59 | 276 | 4.0 | 14.0 | 0.02 | 0.10 | 0.10 | 81 | 1005.4 |
| 20260505205013 | 59 | 280 | 4.0 | 14.0 | 0.02 | 0.10 | 0.10 | 81 | 1005.2 |
| 20260505204525 | 59 | 270 | 6.0 | 15.0 | 0.02 | 0.09 | 0.09 | 81 | 1005.2 |
| 20260505204010 | 60 | 264 | 10.0 | 18.0 | 0.02 | 0.09 | 0.09 | 78 | 1005.2 |
| 20260505203507 | 60 | 284 | 7.0 | 18.0 | 0.02 | 0.09 | 0.09 | 75 | 1005.0 |
| 20260505203040 | 59 | 264 | 7.0 | 12.0 | 0.03 | 0.09 | 0.09 | 78 | 1005.1 |
| 20260505202511 | 59 | 290 | 6.0 | 14.0 | 0.07 | 0.09 | 0.09 | 80 | 1005.0 |
| 20260505202013 | 60 | 281 | 6.0 | 14.0 | 0.09 | 0.09 | 0.09 | 77 | 1005.3 |